Wind_Speed
14 14 14 13 13 13 14 14 15 15 15 15 15 15 15 15 15 16 17 17 18 19 20 21 20 19 19 20 21 20 20 20 21 21 21 22 22 22
14 14 14 14 14 14 14 14 15 15 16 17 16 16 16 15 16 17 17 18 18 19 19 20 20 21 21 21 21 21 22 22 22 22 22 23 22 22
15 15 14 14 14 15 15 15 16 16 17 17 17 17 16 17 17 18 18 19 19 19 19 20 21 21 21 22 22 22 22 23 23 23 24 25 25 25
16 16 15 15 15 15 15 16 16 17 17 18 18 18 18 18 18 19 19 20 20 20 20 20 21 21 21 22 23 23 24 24 24 24 25 26 26 26
17 17 17 16 15 15 15 16 17 18 18 18 19 19 19 19 19 20 20 20 21 21 21 21 21 22 22 23 23 24 24 24 24 25 25 25 26 26
17 17 17 16 15 15 16 16 17 18 18 18 19 19 19 20 20 20 20 21 21 21 21 21 22 22 22 23 23 24 24 24 25 25 25 25 25 25
16 17 17 17 17 17 17 17 18 18 18 18 18 19 19 20 20 20 21 21 21 21 21 22 22 22 23 23 23 24 24 25 25 25 25 25 25 25
16 17 17 18 18 19 19 19 18 18 18 18 19 21 21 21 21 21 21 21 21 22 22 22 22 22 23 23 23 24 24 24 24 24 24 24 25 25
17 17 18 18 19 19 19 20 20 19 19 19 20 20 20 21 21 21 22 22 22 23 22 22 22 22 22 23 23 24 24 24 24 24 24 25 25 26
18 18 18 18 18 18 18 18 19 20 20 20 20 21 21 20 20 21 22 22 22 22 22 22 23 23 23 23 24 24 24 24 25 25 25 26 26 26
19 19 19 19 19 19 19 19 19 19 20 21 21 21 21 20 20 21 21 22 22 22 22 22 23 24 24 24 24 25 25 26 26 25 25 25 25 25
20 20 19 19 19 19 19 19 19 20 21 21 21 21 21 21 21 21 22 23 23 23 23 24 24 25 25 24 25 25 26 26 26 26 25 25 25 24
20 20 20 19 19 20 19 19 20 20 21 21 21 21 21 21 21 22 23 23 23 24 24 24 24 24 25 24 25 26 26 25 26 25 24 24 24 24
21 21 21 20 20 21 21 21 21 21 21 21 22 22 22 21 22 22 23 23 23 23 23 24 24 24 24 24 25 25 25 25 25 24 24 23 24 24
22 22 22 22 21 21 21 21 21 21 21 21 21 22 23 23 23 23 23 23 23 23 23 24 24 24 24 24 24 24 24 23 24 24 24 24 24 24
23 23 22 22 21 21 21 21 21 21 21 21 22 23 23 23 23 23 23 23 23 23 23 23 24 24 24 25 25 25 24 25 24 24 23 23 23 24
23 23 22 21 21 21 21 21 21 22 22 22 22 23 23 24 24 24 23 23 24 24 24 24 25 25 25 25 25 24 24 24 24 24 24 24 24 24
23 22 22 22 22 21 22 22 22 22 22 22 23 23 23 24 25 25 24 24 24 24 25 25 25 26 26 26 25 24 24 24 25 25 25 25 25 25
22 22 23 23 22 23 23 23 23 23 23 23 23 23 23 24 25 25 26 26 25 25 26 26 26 26 26 26 25 25 25 25 26 26 25 25 25 24
23 23 23 23 23 24 24 24 24 24 24 24 24 24 24 24 25 26 26 26 26 26 26 25 25 25 25 25 25 25 25 26 26 26 25 24 24 24
24 24 24 25 25 25 25 26 26 26 25 25 25 25 25 25 25 26 26 26 26 25 25 24 24 24 24 24 24 24 24 25 25 25 25 24 23 23
25 25 25 25 26 26 26 26 26 26 25 25 25 25 25 25 25 25 25 25 25 24 24 24 24 23 23 23 23 23 23 24 24 23 23 23 23 23
26 26 26 26 27 27 27 26 26 25 25 26 26 25 25 25 25 25 24 25 25 24 25 25 24 24 24 23 23 23 23 23 23 23 23 23 23 23
Wind_Direction
297 296 292 287 282 278 275 270 268 268 269 270 272 271 272 273 275 275 275 275 276 275 275 277 276 277 278 281 280 278 279 279 279 275 274 275 276 275
295 294 294 290 286 280 276 274 271 271 271 272 274 273 272 275 276 276 278 278 278 278 277 277 276 277 278 280 281 280 280 278 277 276 276 276 276 277
292 292 292 291 288 283 277 274 272 271 272 274 274 274 275 277 277 278 280 281 281 282 283 283 282 281 280 280 281 282 279 280 278 277 278 276 277 277
293 292 291 291 289 287 280 275 274 273 272 272 272 273 276 279 280 281 282 282 283 284 284 286 285 284 282 281 282 283 281 279 278 279 278 277 277 278
292 291 289 289 289 288 285 280 277 276 274 272 274 273 275 278 282 281 281 280 281 283 285 286 286 286 284 283 282 283 283 282 281 280 280 280 278 277
291 290 290 290 288 288 286 284 282 279 277 275 275 276 277 279 280 281 282 283 282 284 286 286 287 287 286 286 285 284 284 284 283 283 282 281 279 277
293 291 291 289 287 286 286 285 284 283 280 279 279 279 281 282 281 281 282 283 285 285 286 287 289 289 287 286 286 286 286 285 285 285 283 281 279 277
297 294 291 289 287 285 284 284 286 285 284 284 281 280 280 283 281 282 282 283 285 285 286 288 288 288 287 287 287 287 287 287 287 286 285 281 279 277
298 296 294 292 291 288 286 285 284 284 282 284 285 284 283 284 284 283 283 284 285 285 285 287 288 288 287 288 288 288 287 287 287 286 285 283 280 279
298 297 295 294 292 291 290 287 284 284 284 284 284 282 281 282 282 283 285 285 285 284 286 287 287 288 287 288 288 288 286 286 287 286 285 284 282 281
296 297 296 295 292 290 289 289 288 287 287 284 283 281 279 279 280 284 285 285 286 287 287 288 287 288 289 289 288 288 288 288 288 287 287 286 285 284
294 295 295 294 293 290 289 289 288 288 288 285 283 281 280 279 280 284 286 286 285 285 286 287 288 289 290 290 289 290 289 288 288 287 287 287 286 285
293 294 293 293 291 290 288 287 286 287 287 285 284 283 282 281 281 284 285 286 286 285 285 286 288 290 290 290 291 291 290 289 289 287 287 286 286 286
292 293 292 290 289 288 287 286 285 285 286 286 285 284 284 283 283 284 285 286 287 288 287 287 288 290 290 290 292 291 290 289 290 289 287 286 285 285
291 291 292 291 289 288 288 287 286 286 286 286 286 284 283 283 283 284 285 286 288 290 291 291 291 291 290 290 291 292 291 291 291 289 287 286 286 286
290 289 289 289 288 288 289 288 286 286 286 285 284 283 282 284 284 285 286 287 287 288 289 291 291 291 290 291 292 293 292 292 291 289 287 286 285 285
288 287 287 287 286 287 287 286 286 286 285 284 284 284 284 283 283 283 285 286 287 287 287 289 291 292 293 293 293 293 293 291 291 289 287 287 286 285
286 287 286 285 284 284 284 285 286 287 286 286 285 285 284 284 282 283 284 286 287 288 288 289 290 291 292 292 292 293 293 292 292 291 288 287 286 286
284 285 285 283 282 281 282 283 284 286 287 287 288 286 285 284 282 281 282 284 286 287 289 290 290 290 290 289 289 290 292 292 292 291 289 286 286 285
282 283 283 282 281 281 281 281 281 282 284 285 287 287 287 286 285 284 284 284 286 288 289 290 292 292 291 289 288 288 290 292 292 292 289 286 284 285
280 281 282 282 281 279 279 280 280 281 283 285 286 286 287 287 287 286 284 285 287 287 288 289 291 292 292 291 290 290 290 291 292 293 290 287 285 284
279 279 280 282 282 280 279 280 280 281 282 284 285 286 287 288 288 288 286 286 288 287 287 288 290 290 291 292 292 292 292 292 293 293 291 288 287 286
277 277 278 279 279 279 280 281 281 280 281 283 283 284 284 286 287 288 287 286 287 288 288 289 289 289 290 292 294 294 293 292 292 292 291 290 289 289
Height
5836 5835 5834 5833 5832 5831 5830 5830 5830 5829 5829 5829 5828 5828 5827 5827 5826 5825 5824 5823 5822 5822 5821 5820 5819 5818 5818 5817 5816 5815 5814 5813 5812 5811 5810 5810 5809 5809
5833 5832 5831 5829 5828 5827 5827 5826 5825 5825 5825 5824 5824 5824 5823 5823 5822 5821 5820 5819 5818 5817 5816 5815 5814 5813 5812 5811 5810 5809 5808 5807 5806 5805 5804 5804 5803 5802
5829 5828 5827 5826 5824 5823 5823 5822 5821 5821 5821 5820 5820 5819 5819 5819 5818 5817 5816 5815 5813 5812 5811 5810 5809 5808 5807 5805 5804 5803 5802 5801 5800 5799 5798 5797 5796 5796
5825 5824 5823 5821 5820 5819 5818 5818 5817 5817 5816 5816 5815 5815 5814 5814 5813 5812 5811 5810 5809 5807 5806 5805 5803 5802 5800 5799 5798 5796 5795 5794 5793 5792 5791 5790 5789 5788
5820 5819 5818 5817 5816 5815 5814 5813 5813 5812 5811 5811 5811 5810 5810 5809 5808 5807 5806 5804 5803 5802 5800 5799 5797 5796 5794 5792 5791 5790 5788 5787 5785 5784 5783 5782 5781 5781
5816 5815 5814 5813 5812 5811 5810 5809 5808 5807 5807 5806 5806 5805 5804 5804 5803 5802 5800 5799 5798 5796 5795 5793 5791 5789 5788 5786 5784 5783 5781 5780 5778 5777 5776 5775 5774 5773
5811 5810 5809 5808 5807 5806 5806 5805 5804 5803 5802 5801 5801 5800 5799 5798 5797 5796 5795 5793 5792 5790 5789 5787 5785 5783 5781 5780 5778 5776 5774 5773 5771 5770 5769 5768 5767 5766
5807 5806 5805 5804 5803 5802 5801 5800 5799 5798 5797 5796 5795 5794 5793 5792 5791 5790 5789 5788 5786 5785 5783 5781 5779 5777 5775 5773 5771 5770 5768 5766 5765 5763 5762 5760 5760 5759
5803 5801 5800 5799 5798 5796 5795 5794 5794 5793 5792 5791 5789 5788 5787 5786 5785 5784 5782 5781 5780 5778 5776 5774 5772 5770 5768 5766 5765 5763 5761 5760 5758 5756 5755 5754 5752 5751
5799 5797 5795 5794 5792 5791 5790 5789 5788 5787 5786 5785 5784 5782 5781 5780 5779 5777 5776 5774 5773 5771 5770 5768 5766 5764 5762 5760 5758 5756 5755 5753 5751 5749 5748 5746 5745 5744
5794 5792 5790 5789 5787 5785 5784 5783 5782 5780 5779 5778 5777 5776 5774 5773 5772 5771 5769 5768 5767 5765 5763 5761 5759 5757 5755 5753 5751 5749 5748 5746 5744 5742 5741 5739 5737 5736
5789 5787 5785 5784 5782 5780 5779 5777 5776 5774 5773 5771 5770 5769 5768 5767 5766 5764 5763 5762 5760 5759 5757 5755 5753 5751 5749 5746 5744 5742 5740 5738 5736 5735 5733 5731 5730 5728
5783 5781 5780 5778 5776 5774 5773 5771 5770 5768 5767 5765 5764 5762 5761 5760 5759 5758 5756 5755 5753 5752 5750 5748 5746 5744 5742 5740 5738 5735 5733 5731 5729 5727 5726 5724 5723 5721
5777 5776 5774 5772 5770 5768 5767 5765 5764 5762 5760 5759 5758 5756 5755 5754 5753 5751 5750 5748 5747 5745 5743 5741 5739 5737 5735 5733 5731 5728 5726 5724 5722 5720 5719 5717 5716 5714
5771 5769 5767 5765 5764 5762 5760 5758 5757 5755 5754 5752 5751 5750 5749 5747 5746 5744 5743 5741 5740 5738 5736 5734 5732 5730 5728 5726 5724 5721 5719 5717 5715 5713 5712 5710 5709 5707
5764 5762 5760 5758 5757 5755 5753 5752 5750 5749 5747 5746 5744 5743 5742 5740 5739 5737 5736 5734 5733 5731 5729 5727 5725 5723 5720 5718 5716 5714 5712 5710 5708 5706 5705 5703 5701 5700
5756 5755 5753 5752 5750 5748 5747 5745 5743 5742 5740 5739 5737 5736 5734 5733 5731 5730 5728 5727 5725 5724 5722 5720 5717 5715 5713 5711 5709 5707 5705 5703 5701 5699 5698 5696 5694 5693
5749 5748 5746 5745 5744 5742 5740 5739 5737 5735 5733 5732 5730 5729 5727 5726 5724 5723 5721 5720 5718 5716 5715 5713 5710 5708 5706 5704 5702 5700 5698 5696 5694 5692 5690 5688 5687 5685
5742 5741 5740 5738 5737 5735 5734 5732 5730 5728 5727 5725 5723 5722 5720 5718 5717 5715 5714 5712 5711 5709 5707 5705 5702 5700 5698 5697 5695 5692 5690 5688 5686 5684 5682 5680 5679 5677
5735 5734 5732 5731 5730 5728 5727 5725 5723 5722 5720 5718 5716 5714 5713 5711 5709 5708 5706 5704 5703 5701 5699 5697 5694 5692 5690 5689 5687 5685 5683 5681 5678 5676 5674 5672 5671 5669
5727 5726 5725 5723 5722 5721 5719 5717 5716 5714 5712 5711 5709 5707 5705 5703 5702 5700 5698 5696 5695 5693 5691 5689 5687 5685 5682 5680 5679 5677 5675 5673 5671 5668 5666 5665 5664 5662
5719 5718 5717 5715 5714 5712 5711 5709 5708 5706 5705 5703 5701 5699 5697 5696 5694 5692 5690 5689 5687 5685 5683 5681 5679 5677 5675 5673 5671 5669 5667 5665 5663 5661 5659 5658 5656 5655
5711 5710 5708 5707 5706 5704 5703 5701 5700 5698 5697 5695 5693 5692 5690 5688 5686 5684 5682 5681 5679 5677 5675 5674 5672 5670 5668 5666 5664 5662 5660 5658 5655 5654 5652 5650 5649 5647